Location: Unspecified
(0.0000°N, 0.0000°E)
Time: 12:07:56
(UTC+00:00)

Vanguard 2 - Visible Passes

Search period start: 28 January 2015 00:00
Search period end: 07 February 2015 00:00
Orbit: 553 x 2946 km, 32.9° (Epoch: 27 January)

Date Brightness Start Highest point End Pass type
(mag) Time Alt. Az. Time Alt. Az. Time Alt. Az.
28 Jan 9.9 05:36:25 10° S 05:38:56 15° SE 05:42:01 10° ESE visible
28 Jan 10.0 18:42:44 10° NW 19:00:40 85° NE 19:13:11 10° ESE visible
28 Jan 10.6 20:58:46 10° W 21:12:10 36° SW 21:19:35 15° SSE visible
29 Jan 10.2 19:02:16 10° WNW 19:20:02 77° SW 19:32:16 10° SE visible
29 Jan 11.0 21:20:04 10° W 21:31:26 26° SW 21:38:39 11° SSE visible
30 Jan 10.4 19:22:08 10° WNW 19:39:18 60° SW 19:51:07 10° SE visible
30 Jan 11.1 21:42:13 10° WSW 21:50:54 18° SSW 21:56:59 10° S visible
31 Jan 10.8 19:42:26 10° WNW 19:58:36 46° SW 20:09:46 10° SSE visible
31 Jan 11.3 22:05:44 10° SW 22:10:37 12° SSW 22:14:02 10° S visible
01 Feb 9.5 04:43:54 10° SSW 04:46:44 19° SE 04:49:53 10° E visible
01 Feb 11.1 20:03:17 10° W 20:17:58 34° SW 20:28:15 10° SSE visible
02 Feb 8.3 05:02:06 10° SSW 05:05:47 38° SE 05:09:59 10° ENE visible
02 Feb 10.7 18:06:43 10° WNW 18:24:48 69° SW 18:39:05 10° SE visible
02 Feb 11.3 20:24:48 10° W 20:37:31 26° SSW 20:46:33 10° SSE visible
03 Feb 7.0 05:20:51 10° SW 05:24:47 83° SE 05:29:26 10° ENE visible
03 Feb 11.0 18:26:42 10° WNW 18:44:13 55° SW 18:57:54 10° SE visible
03 Feb 11.3 20:47:06 10° WSW 20:57:17 19° SSW 21:04:38 10° S visible
04 Feb 10.1 03:37:26 11° ESE 03:37:26 11° ESE 03:37:48 10° ESE visible
04 Feb 7.3 05:40:05 10° WSW 05:43:52 45° NNW 05:48:23 10° NE visible
04 Feb 11.3 18:47:07 10° W 19:03:43 43° SW 19:16:34 10° SSE visible
04 Feb 11.5 21:10:25 10° SW 21:17:19 14° SSW 21:22:19 10° S visible
05 Feb 9.3 03:56:24 21° ESE 03:56:24 21° ESE 03:58:11 10° E visible
05 Feb 11.4 19:08:07 10° W 19:23:23 33° SSW 19:35:07 10° SSE visible
06 Feb 8.3 04:15:18 35° E 04:15:18 35° E 04:17:46 10° ENE visible
06 Feb 11.5 19:29:47 10° W 19:43:16 25° SSW 19:53:33 10° SSE visible
